Flag for Poland Weather past 2 weeks in Białystok, Poland

Now
53 °F

Passing clouds.


Feels Like: 53 °F
Forecast: 50 / 63 °F
Wind: No wind

Location: Bialystok

Current Time: Sep 3, 2015 at 9:41:32 PM

Latest Report: Sep 3, 2015 at 8:00 PM


Visibility: 31 mi

Pressure: 30.00 "Hg

Humidity: 75%

Dew point: 46 °F

Location of BiałystokLocation

Historic Weather in Białystok — Graph

°F

Białystok temperature yesterday

Maximum temperature yesterday: 73 °F (at 12:00 PM)
Minimum temperature yesterday: 57 °F (at 10:00 PM)
Average temperature yesterday: 65 °F

Past Weeks' High & Low Weather Summary

 TemperatureHumidityPressure
High92 °F (Sep 1, 3:00 PM)99% (Sep 3, 7:00 AM)30.41 "Hg (Sep 3, 7:00 AM)
Low42 °F (Aug 21, 5:00 AM)27% (Aug 24, 2:00 PM)29.67 "Hg (Sep 2, 7:00 AM)
Average65 °F64%30.09 "Hg
* Reported Aug 19 8:00 PM — Sep 3 8:00 PM, Białystok, Weather by CustomWeather, © 2015

Note: Actual official high and low records may vary slightly from our data, if they occured in-between our weather recording intervals... More about our weather records

Advertising

Białystok weather history for previous 24 hours

 ConditionsComfort  
Time TempWeatherWind HumidityBarometerVisibility
8:00 PM
Thu, Sep 3
53 °FPassing clouds.No wind75%30.00 "Hg31 mi
7:00 PM61 °FScattered clouds.1 mph56%29.99 "Hg31 mi
6:00 PM68 °FScattered clouds.2 mph40%29.98 "Hg28 mi
5:00 PM69 °FPartly sunny.2 mph40%29.98 "Hg25 mi
4:00 PM69 °FPartly sunny.2 mph42%29.98 "Hg19 mi
3:00 PM68 °FPartly sunny.3 mph47%30.00 "Hg19 mi
2:00 PM65 °FPartly sunny.2 mph53%30.02 "Hg22 mi
1:00 PM65 °FPartly sunny.3 mph59%30.02 "Hg25 mi
12:00 PM63 °FOvercast.2 mph62%30.02 "Hg22 mi
11:00 AM61 °FOvercast.N/A71%30.03 "Hg12 mi
10:00 AM60 °FOvercast.2 mph77%30.03 "Hg15 mi
9:00 AM57 °FOvercast.1 mph86%30.03 "Hg16 mi
8:00 AM54 °FOvercast.1 mph96%30.02 "Hg9 mi
7:00 AM50 °FOvercast.1 mph99%30.02 "Hg9 mi
5:00 AM45 °FFog.1 mph97%30.02 "Hg3 mi
4:00 AM47 °FFog.1 mph95%30.01 "Hg2 mi
3:00 AM52 °FFog.1 mph98%30.00 "Hg3 mi
2:00 AM53 °FFog.1 mph97%30.01 "Hg4 mi
1:00 AM53 °FClear.1 mph96%30.00 "Hg6 mi
12:00 AM55 °FPassing clouds.1 mph97%29.99 "Hg7 mi
10:00 PM
Wed, Sep 2
57 °FPassing clouds.1 mph88%29.98 "Hg22 mi
9:00 PM59 °FOvercast.1 mph82%29.98 "Hg28 mi
Weather by CustomWeather, © 2015

See weather overviewHow to use our weather pages